Stündliche Wetter Wien

Heute, 28 Februar, Sonntag

Zeit Temperatur Niederschläge Wind Luftdruck Luftfeuchtigkeit
00:00 +2°C° 0 mm 3 m/S 758 mmHg 76%
01:00 +2°C° 0 mm 3 m/S 758 mmHg 79%
02:00 +2°C° 0 mm 3 m/S 758 mmHg 80%
03:00 +1°C° 0 mm 3 m/S 758 mmHg 80%
04:00 +2°C° 0 mm 2 m/S 757 mmHg 80%
05:00 +2°C° 0 mm 2 m/S 757 mmHg 80%
06:00 +1°C° 0 mm 2 m/S 757 mmHg 80%
07:00 +1°C° 0 mm 2 m/S 757 mmHg 80%
08:00 +2°C° 0 mm 2 m/S 757 mmHg 74%
09:00 +4°C° 0 mm 2 m/S 757 mmHg 68%
10:00 +5°C° 0 mm 2 m/S 757 mmHg 62%
11:00 +6°C° 0 mm 2 m/S 757 mmHg 58%
12:00 +7°C° 0 mm 2 m/S 757 mmHg 55%
13:00 +7°C° 0 mm 2 m/S 756 mmHg 52%
14:00 +8°C° 0 mm 2 m/S 756 mmHg 51%
15:00 +8°C° 0 mm 2 m/S 756 mmHg 50%
16:00 +8°C° 0 mm 2 m/S 755 mmHg 49%
17:00 +8°C° 0 mm 1 m/S 755 mmHg 53%
18:00 +7°C° 0 mm 1 m/S 755 mmHg 57%
19:00 +6°C° 0 mm 1 m/S 755 mmHg 61%
20:00 +6°C° 0 mm 1 m/S 755 mmHg 62%
21:00 +5°C° 0 mm 1 m/S 755 mmHg 63%
22:00 +4°C° 0 mm 2 m/S 756 mmHg 65%
23:00 +4°C° 0 mm 2 m/S 756 mmHg 67%

Morgen, 1 März, Montag

Zeit Temperatur Niederschläge Wind Luftdruck Luftfeuchtigkeit
00:00 +3°C° 0 mm 2 m/S 756 mmHg 69%
01:00 +3°C° 0 mm 2 m/S 756 mmHg 71%
02:00 +3°C° 0 mm 2 m/S 755 mmHg 72%
03:00 +2°C° 0 mm 2 m/S 755 mmHg 73%
04:00 +2°C° 0 mm 2 m/S 755 mmHg 75%
05:00 +2°C° 0 mm 2 m/S 755 mmHg 77%
06:00 +2°C° 0 mm 2 m/S 755 mmHg 79%
07:00 +2°C° 0 mm 2 m/S 756 mmHg 81%
08:00 +3°C° 0 mm 2 m/S 756 mmHg 77%
09:00 +4°C° 0 mm 3 m/S 756 mmHg 73%
10:00 +5°C° 0 mm 3 m/S 756 mmHg 69%
11:00 +7°C° 0 mm 3 m/S 756 mmHg 65%
12:00 +8°C° 0 mm 2 m/S 756 mmHg 61%
13:00 +9°C° 0 mm 2 m/S 756 mmHg 57%
14:00 +10°C° 0 mm 2 m/S 756 mmHg 58%
15:00 +10°C° 0 mm 2 m/S 756 mmHg 58%
16:00 +10°C° 0 mm 2 m/S 755 mmHg 58%
17:00 +9°C° 0 mm 1 m/S 756 mmHg 64%
18:00 +8°C° 0 mm 1 m/S 756 mmHg 70%
19:00 +7°C° 0 mm 1 m/S 756 mmHg 76%
20:00 +6°C° 0 mm 1 m/S 756 mmHg 78%
21:00 +6°C° 0 mm 1 m/S 756 mmHg 81%
22:00 +4°C° 0 mm 0 m/S 757 mmHg 83%
23:00 +4°C° 0 mm 0 m/S 757 mmHg 84%

übermorgen, 2 März, Dienstag

Zeit Temperatur Niederschläge Wind Luftdruck Luftfeuchtigkeit
00:00 +4°C° 0 mm 0 m/S 757 mmHg 85%
01:00 +3°C° 0 mm 0 m/S 757 mmHg 86%
02:00 +3°C° 0 mm 0 m/S 757 mmHg 87%
03:00 +4°C° 0 mm 1 m/S 756 mmHg 88%
04:00 +4°C° 0 mm 1 m/S 756 mmHg 88%
05:00 +3°C° 0 mm 1 m/S 756 mmHg 89%
06:00 +3°C° 0 mm 1 m/S 756 mmHg 90%
07:00 +3°C° 0 mm 1 m/S 756 mmHg 90%
08:00 +5°C° 0 mm 1 m/S 756 mmHg 83%
09:00 +6°C° 0 mm 1 m/S 756 mmHg 76%
10:00 +7°C° 0 mm 2 m/S 756 mmHg 68%
11:00 +8°C° 0 mm 2 m/S 756 mmHg 62%
12:00 +10°C° 0 mm 2 m/S 756 mmHg 56%
13:00 +12°C° 0 mm 2 m/S 755 mmHg 50%
14:00 +12°C° 0 mm 2 m/S 755 mmHg 50%
15:00 +12°C° 0 mm 2 m/S 755 mmHg 50%
16:00 +13°C° 0 mm 2 m/S 754 mmHg 49%
17:00 +10°C° 0 mm 2 m/S 755 mmHg 55%
18:00 +9°C° 0 mm 2 m/S 755 mmHg 61%
19:00 +8°C° 0 mm 1 m/S 755 mmHg 67%
20:00 +8°C° 0 mm 1 m/S 755 mmHg 70%
21:00 +7°C° 0 mm 1 m/S 755 mmHg 72%
22:00 +7°C° 0 mm 1 m/S 755 mmHg 75%
23:00 +6°C° 0 mm 1 m/S 755 mmHg 76%

3 März, Mittwoch

Zeit Temperatur Niederschläge Wind Luftdruck Luftfeuchtigkeit
00:00 +5°C° 0 mm 0 m/S 755 mmHg 78%
01:00 +4°C° 0 mm 0 m/S 755 mmHg 80%
02:00 +4°C° 0 mm 0 m/S 755 mmHg 81%
03:00 +4°C° 0 mm 0 m/S 754 mmHg 82%
04:00 +3°C° 0 mm 0 m/S 754 mmHg 83%
05:00 +3°C° 0 mm 0 m/S 754 mmHg 83%
06:00 +3°C° 0 mm 0 m/S 754 mmHg 84%
07:00 +3°C° 0 mm 0 m/S 754 mmHg 84%
08:00 +5°C° 0 mm 0 m/S 754 mmHg 77%
09:00 +6°C° 0 mm 0 m/S 754 mmHg 70%
10:00 +8°C° 0 mm 0 m/S 754 mmHg 64%
11:00 +10°C° 0 mm 1 m/S 753 mmHg 59%
12:00 +12°C° 0 mm 1 m/S 753 mmHg 54%
13:00 +13°C° 0 mm 1 m/S 752 mmHg 49%
14:00 +13°C° 0 mm 1 m/S 752 mmHg 49%
15:00 +13°C° 0 mm 1 m/S 751 mmHg 49%
16:00 +14°C° 0 mm 1 m/S 751 mmHg 48%
17:00 +12°C° 0 mm 1 m/S 751 mmHg 54%
18:00 +11°C° 0 mm 1 m/S 751 mmHg 60%
19:00 +9°C° 0 mm 1 m/S 751 mmHg 66%
20:00 +9°C° 0 mm 1 m/S 751 mmHg 68%
21:00 +8°C° 0 mm 1 m/S 750 mmHg 70%
22:00 +8°C° 0 mm 1 m/S 750 mmHg 71%
23:00 +8°C° 0 mm 1 m/S 750 mmHg 72%

4 März, Donnerstag

Zeit Temperatur Niederschläge Wind Luftdruck Luftfeuchtigkeit
00:00 +7°C° 0 mm 1 m/S 749 mmHg 73%
01:00 +6°C° 0 mm 0 m/S 749 mmHg 74%
02:00 +6°C° 0 mm 0 m/S 748 mmHg 74%
03:00 +5°C° 0 mm 0 m/S 748 mmHg 74%
04:00 +5°C° 0 mm 0 m/S 748 mmHg 75%
05:00 +5°C° 0 mm 0 m/S 747 mmHg 75%
06:00 +5°C° 0 mm 0 m/S 747 mmHg 75%
07:00 +4°C° 0 mm 0 m/S 747 mmHg 75%
08:00 +6°C° 0 mm 0 m/S 746 mmHg 68%
09:00 +9°C° 0 mm 1 m/S 746 mmHg 62%
10:00 +11°C° 0 mm 1 m/S 745 mmHg 55%
11:00 +12°C° 0 mm 1 m/S 744 mmHg 51%
12:00 +13°C° 0 mm 1 m/S 744 mmHg 47%
13:00 +15°C° 0 mm 1 m/S 743 mmHg 43%
14:00 +15°C° 0 mm 2 m/S 743 mmHg 44%
15:00 +15°C° 0 mm 2 m/S 742 mmHg 45%
16:00 +15°C° 0 mm 2 m/S 741 mmHg 46%
17:00 +13°C° 0 mm 2 m/S 741 mmHg 50%
18:00 +12°C° 0 mm 2 m/S 741 mmHg 55%
19:00 +10°C° 0 mm 2 m/S 741 mmHg 60%
20:00 +10°C° 0 mm 2 m/S 741 mmHg 61%
21:00 +9°C° 0 mm 3 m/S 741 mmHg 62%
22:00 +8°C° 0 mm 4 m/S 741 mmHg 63%
23:00 +8°C° 0 mm 4 m/S 740 mmHg 66%

5 März, Freitag

Zeit Temperatur Niederschläge Wind Luftdruck Luftfeuchtigkeit
00:00 +8°C° 0 mm 4 m/S 740 mmHg 69%
01:00 +8°C° 0 mm 5 m/S 740 mmHg 72%
02:00 +7°C° 0 mm 5 m/S 740 mmHg 73%
03:00 +7°C° 0 mm 5 m/S 740 mmHg 75%
04:00 +7°C° 0 mm 5 m/S 739 mmHg 76%
05:00 +7°C° 0 mm 5 m/S 739 mmHg 76%
06:00 +7°C° 0 mm 5 m/S 740 mmHg 76%
07:00 +7°C° 0 mm 5 m/S 740 mmHg 76%
08:00 +7°C° 0.3 mm 4 m/S 740 mmHg 77%
09:00 +6°C° 0.3 mm 4 m/S 740 mmHg 77%
10:00 +6°C° 0.3 mm 4 m/S 740 mmHg 78%
11:00 +6°C° 0.3 mm 4 m/S 740 mmHg 75%
12:00 +6°C° 0.3 mm 4 m/S 741 mmHg 73%
13:00 +7°C° 0.3 mm 3 m/S 741 mmHg 70%
14:00 +6°C° 0.3 mm 4 m/S 741 mmHg 71%
15:00 +5°C° 0.3 mm 5 m/S 742 mmHg 71%
16:00 +5°C° 0.3 mm 5 m/S 742 mmHg 71%
17:00 +3°C° 0.2 mm 5 m/S 743 mmHg 73%
18:00 +1°C° 0.2 mm 5 m/S 743 mmHg 75%
19:00 0°C° 0.2 mm 5 m/S 744 mmHg 77%
20:00 0°C° 0.1 mm 5 m/S 745 mmHg 74%
21:00 -1°C° 0.1 mm 4 m/S 746 mmHg 70%
22:00 -1°C° 0.1 mm 4 m/S 747 mmHg 67%
23:00 -2°C° 0.1 mm 4 m/S 747 mmHg 67%
Mehr zeigen

Wir brauchen deine Erlaubnis

Meteoprog und unser Service Anbieter werden persönliche Daten aufbewahren, so wie Cookies, Geräte Bezeichnung oder ähnliche Technologien von deinem Gerät und Prozess, so wie Persönliche Daten Inhalte und Werbungen, genauso wie social Media und den Verkehr zu analysieren.

  • Aufbewahrung und/oder Zugang zu deiner Geräte Informationen.

    Cookies, Geräte Bezeichnung oder andere Informationen, können aufbewahrt oder Zugang zu deinem Gerät erhalten, für den Grund, der oben angegeben wird.

  • Personalisierte Werbung und Inhalte, Messungen, Einblick in das Publikum und Produkt Entwicklung.

    Werbungen und Inhalte können personalisiert werden, basierend auf ein Profil. Mehr Daten können besser personalisierte Werbungen und Inhalte hinzufügen. Werbung und Inhalte können gezeigt und gemessen werden. Einblicke über das Publikum, welche die Werbung gesehen haben und den Inhalt, können abgeleitet werden. So wie Daten können genutzt werden, um es zu verbessern oder die Benutzer Erfahrung zu verbessern das System und die Software.

Wenn du “Ich stimme zu” klickst, erlaubst du uns, die Cookies zu benutzen die Geräte Bezeichnung, den Web oder ähnliche Technologien zu benutzen. Deine Settings, können in deinem Gerät bei deinem Browser geändert werden.

Für den bestimmten Zweck, berechtigten Interessen beruhen darauf, mehr als auf den Inhalt. Du kannst mehr darüber in unseren Privaten und Cookie Politik lesen.